"Pseudo-MPEC" for gb00855

Created 2026 Sep 5 10:35:18 UT using Find_Orb

Click here for an explanation of pseudo-MPECs

 
 Astrometry: 
     gb00855 0C2026 09 02.27431622 09 46.851+14 47 38.06   ~952o 20.45rUNEOCPI41
     gb00855 0C2026 09 02.33919622 09 40.112+14 48 19.13   ~952o 21.24gUNEOCPI41
     gb00855 0C2026 09 03.26502722 08 08.922+14 57 56.95   ~952o 20.52rUNEOCPI41
     gb00855 0C2026 09 03.31020722 08 04.245+14 58 23.56   ~952o 20.54gUNEOCPI41
     gb00855 0C2026 09 04.24851022 06 32.351+15 07 45.11   ~952o 21.25rUNEOCPI41
     gb00855 0C2026 09 04.29423122 06 27.700+15 08 11.08   ~952o 22.34gUNEOCPI41
     gb00855 0C2026 09 04.35367322 06 21.729+15 08 45.35   ~952o 21.42iUNEOCPI41
     gb00855 1C2026 09 04.84597722 05 34.21 +15 13 25.1    ~94MZ 19.8 GVNEOCPK88
     gb00855 1C2026 09 04.84819022 05 33.95 +15 13 26.2    ~94MZ 20.1 GVNEOCPK88
     gb00855 1C2026 09 04.85039522 05 33.68 +15 13 27.1    ~94MZ 20.2 GVNEOCPK88
     gb00855 KC2026 09 04.86302 22 05 32.29 +15 13 35.6    ~94M5 19.1 GXNEOCPL51
     gb00855 KC2026 09 04.86599 22 05 32.08 +15 13 37.4    ~94M5 19.4 GXNEOCPL51
     gb00855 KC2026 09 04.86896 22 05 31.72 +15 13 38.9    ~94M5 18.9 GXNEOCPL51
     gb00855*KC2026 09 04.88350 22 05 30.33 +15 13 47.5    ~94Lox19.8 GXNEOCPL51
     gb00855 KC2026 09 04.88924 22 05 29.62 +15 13 50.1    ~94Lo 19.7 GXNEOCPL51
     gb00855 KC2026 09 04.89498 22 05 29.00 +15 13 53.7    ~94Lo 19.6 GXNEOCPL51
     gb00855 0C2026 09 04.92289522 05 26.575+15 14 07.69   ~94Mo 20.1 GWNEOCPJ95
     gb00855 0C2026 09 04.92542322 05 26.340+15 14 08.70   ~94Mo 20.1 GWNEOCPJ95
     gb00855 KB2026 09 04.92732722 05 26.14 +15 14 11.4    ~94Mo 20.2 GXNEOCPI93
     gb00855 0C2026 09 04.92943122 05 25.922+15 14 11.62   ~94Mo 20.6 GWNEOCPJ95
     gb00855 KB2026 09 04.93107122 05 25.76 +15 14 13.8    ~94Mo 20.4 GXNEOCPI93
     gb00855 KB2026 09 04.93462622 05 25.41 +15 14 15.8    ~94Mo 20.4 GXNEOCPI93
     gb00855 KB2026 09 04.95550622 05 23.107+15 14 26.92   ~94No 20.3 GXNEOCP595
     gb00855 KB2026 09 04.96143522 05 22.572+15 14 30.88   ~950o 20.7 GXNEOCPK83
     gb00855 KB2026 09 04.96314922 05 22.373+15 14 31.78   ~94No 20.4 GXNEOCP595
     gb00855 IB2026 09 04.97079122 05 21.629+15 14 36.35   ~94No 18.5 GXNEOCP595
     gb00855 KB2026 09 05.00667822 05 17.990+15 14 55.75   ~950o 21.0 GXNEOCPK83

Station data:
(595) Farra d'Isonzo  (N45.915731 E13.525780)  Italy.  Observers S. Aschi, E.
   Pettarin, G. Panterotto. Measurers S. Aschi, E. Pettarin. 0.40-m f/5.15
   reflector + CCD.
(I41) Palomar Mountain--ZTF  (N33.357336 W116.859780)  US/California.
   Observers B. T. Bolin, Z. T. F. Collaboration. Measurers B. T. Bolin,
   Z.-Y. Lin, F. J. Masci. 1.2-m f/2.4 Schmidt.
(I93) St Pardon de Conques  (N44.558670 W0.202960)  France.  Observers F.
   Losse, W. D'Anna. Measurer F. Losse. 0.40-m f/3.7 reflector + CCD.
(J95) Great Shefford  (N51.474969 W1.447003)  UK/England.  Observer P.
   Birtwhistle. 0.41-m f/6.3 Schmidt-Cassegrain + CCD.
(K83) Beppe Forti Astronomical Observatory, Montelupo  (N43.755330
   E11.043170)  Italy.  Observers M. Tombelli, A. Mazzanti, E. Venticinque.
   Measurers G. Interrante, M. Iozzi, M. Tombelli, F. Bernardi. 0.40-m f/8
   Ritchey-Chrétien + CCD.
(K88) GINOP-KHK, Piszkéstető  (N47.917453 E19.893670)  Hungary.  Observer K.
   Sárneczky. 0.60-m Schmidt + CCD.
(L51) MARGO, Nauchnij  (N44.729397 E34.016400)  Ukraine.  Observer G. Borisov.
    0.4-m f/2.3 astrograph + CCD.

Orbital elements:  gb00855
   Perihelion 2026 Nov 26.764657 +/- 7.48 TT = 18:21:06.4 (JD 2461371.264657)
Epoch 2026 Sep  5.0 TT = JDT 2461288.5   Earth MOID: 0.7112      AutoNEOCP
M 328.041989448 +/- 3.2             (J2000 ecliptic)
n   0.386131128 +/- 0.00758         Peri.   74.363093 +/- 4.8
a   1.867724604 +/- 0.0246          Node   308.720874 +/- 0.6
e   0.12458147 +/- 0.00539          Incl.   18.949022 +/- 0.6
P   2.553/932.308d         H 19.26  G  0.15   U  9.5
q 1.635040713 +/- 0.0267    Q 2.100408495 +/- 0.0259
26 of 27 observations 2026 Sept. 2-5; mean residual 0".46
Residuals in arcseconds: 
260902 I41  .26+  .39+    260904 K88  .20-  .23-    260904 I93  .09-  .10-    
260902 I41  .03-  .09+    260904 L51  .07+  .38+    260904 J95  .07-  .18+    
260903 I41  .09-  .13-    260904 L51  1.4+  .50+    260904 I93  .11-  .18+    
260903 I41  .42-  1.2-    260904 L51  .51+  .32+    260904 I93  .02+  .16+    
260904 I41  .77-  .76+    260904 L51( 1.7+  .71+)   260904 595  .72-  .24-    
260904 I41  .42-  .02-    260904 L51  .21-  .07+    260904 K83  .12-  .03-    
260904 I41  1.0+  .09-    260904 L51  .78-  .44+    260904 595  .18-  .34+    
260904 K88  1.0+  .30+    260904 J95  .13-  .04-    260904 595  .20+  .63+    
260904 K88  .50+  .13+    260904 J95  .15+  .46-    260905 K83  .38-  .39-    

Ephemerides (geocentric):
Date (UTC) HH   RA             Dec           delta  r     elong  mag " sig PA
---- --------  ------------   ------------  ------ ------ -----  --- --------
2026 09 05 11  22 04 34.503   +15 19 12.92  .71241 1.6794 154.5 20.5 .150  64
2026 09 05 12  22 04 30.474   +15 19 35.76  .71244 1.6794 154.5 20.5 .168  59
2026 09 05 13  22 04 26.446   +15 19 58.55  .71247 1.6793 154.4 20.5 .188  55
2026 09 05 14  22 04 22.421   +15 20 21.29  .71250 1.6793 154.4 20.5 .209  51
2026 09 05 15  22 04 18.397   +15 20 43.98  .71253 1.6793 154.4 20.5 .231  48
2026 09 05 16  22 04 14.376   +15 21 06.62  .71256 1.6792 154.4 20.5 .254  45
2026 09 05 17  22 04 10.356   +15 21 29.21  .71259 1.6792 154.4 20.5 .278  43
2026 09 05 18  22 04 06.337   +15 21 51.75  .71262 1.6791 154.3 20.5 .303  41
2026 09 05 19  22 04 02.321   +15 22 14.24  .71265 1.6791 154.3 20.5 .328  40
2026 09 05 20  22 03 58.307   +15 22 36.69  .71268 1.6790 154.3 20.5 .355  38
2026 09 05 21  22 03 54.294   +15 22 59.08  .71271 1.6790 154.3 20.5 .382  37
2026 09 05 22  22 03 50.283   +15 23 21.42  .71274 1.6790 154.3 20.5 .409  36
2026 09 05 23  22 03 46.275   +15 23 43.72  .71278 1.6789 154.2 20.5 .438  35
2026 09 06 00  22 03 42.268   +15 24 05.97  .71281 1.6789 154.2 20.5 .467  34
2026 09 06 01  22 03 38.263   +15 24 28.16  .71284 1.6788 154.2 20.5 .497  33
2026 09 06 02  22 03 34.260   +15 24 50.31  .71288 1.6788 154.2 20.5 .527  32
2026 09 06 03  22 03 30.259   +15 25 12.41  .71291 1.6787 154.2 20.5 .558  31
2026 09 06 04  22 03 26.260   +15 25 34.46  .71294 1.6787 154.1 20.5 .590  31
2026 09 06 05  22 03 22.262   +15 25 56.46  .71298 1.6787 154.1 20.5 .622  30
2026 09 06 06  22 03 18.267   +15 26 18.41  .71301 1.6786 154.1 20.5 .655  29
2026 09 06 07  22 03 14.274   +15 26 40.31  .71305 1.6786 154.1 20.5 .688  29
2026 09 06 08  22 03 10.283   +15 27 02.16  .71308 1.6785 154.1 20.5 .722  28
2026 09 06 09  22 03 06.294   +15 27 23.96  .71312 1.6785 154.0 20.5 .757  28
2026 09 06 10  22 03 02.306   +15 27 45.72  .71315 1.6784 154.0 20.5 .792  27
2026 09 06 11  22 02 58.321   +15 28 07.42  .71319 1.6784 154.0 20.5 .828  27
2026 09 06 12  22 02 54.338   +15 28 29.08  .71323 1.6784 154.0 20.5 .864  27
2026 09 06 13  22 02 50.357   +15 28 50.68  .71327 1.6783 154.0 20.5 .901  26
2026 09 06 14  22 02 46.378   +15 29 12.24  .71330 1.6783 153.9 20.5 .939  26
2026 09 06 15  22 02 42.401   +15 29 33.75  .71334 1.6782 153.9 20.5 .977  25
2026 09 06 16  22 02 38.427   +15 29 55.21  .71338 1.6782 153.9 20.5 1.02  25
2026 09 06 17  22 02 34.454   +15 30 16.62  .71342 1.6781 153.9 20.5 1.06  25
2026 09 06 18  22 02 30.484   +15 30 37.98  .71346 1.6781 153.9 20.5 1.09  24
2026 09 06 19  22 02 26.515   +15 30 59.29  .71350 1.6781 153.8 20.5 1.14  24
2026 09 06 20  22 02 22.549   +15 31 20.55  .71354 1.6780 153.8 20.5 1.18  24
2026 09 06 21  22 02 18.585   +15 31 41.77  .71358 1.6780 153.8 20.5 1.22  24
2026 09 06 22  22 02 14.623   +15 32 02.93  .71362 1.6779 153.8 20.5 1.26  23
2026 09 06 23  22 02 10.663   +15 32 24.05  .71366 1.6779 153.7 20.5 1.30  23
2026 09 07 00  22 02 06.706   +15 32 45.11  .71370 1.6779 153.7 20.5 1.35  23
2026 09 07 01  22 02 02.750   +15 33 06.13  .71374 1.6778 153.7 20.5 1.39  22
2026 09 07 02  22 01 58.797   +15 33 27.10  .71378 1.6778 153.7 20.5 1.43  22
2026 09 07 03  22 01 54.846   +15 33 48.02  .71382 1.6777 153.7 20.5 1.48  22
2026 09 07 04  22 01 50.898   +15 34 08.89  .71386 1.6777 153.6 20.5 1.52  22
2026 09 07 05  22 01 46.951   +15 34 29.72  .71391 1.6776 153.6 20.5 1.57  22
2026 09 07 06  22 01 43.007   +15 34 50.49  .71395 1.6776 153.6 20.5 1.62  21
2026 09 07 07  22 01 39.065   +15 35 11.21  .71399 1.6776 153.6 20.5 1.66  21
2026 09 07 08  22 01 35.126   +15 35 31.89  .71404 1.6775 153.6 20.5 1.71  21
2026 09 07 09  22 01 31.188   +15 35 52.52  .71408 1.6775 153.5 20.5 1.76  21
2026 09 07 10  22 01 27.253   +15 36 13.09  .71413 1.6774 153.5 20.5 1.81  20